Location: Doverdale
(52.2833°N, 2.2000°W)
Time: 05:13:01
(UTC+00:00)

ARGOS - Pass Details

Date: 29 October 2020
Orbit: 820 x 835 km, 98.4° (Epoch: 25 November)

Event Time Altitude Azimuth Distance (km) Brightness Sun altitude
Exits shadow 19:58:52 22° 204° (SSW) 1,748 4.8 -30.0°
Maximum altitude 20:01:58 43° 263° (W) 1,171 4.2 -30.5°
Drops below altitude 10° 20:07:08 10° 334° (NNW) 2,459 6.1 -31.2°
Sets 20:09:38 0° 341° (NNW) 3,398 6.8 -31.6°
